Tracking 31027 objects as of 19-Jul-2025
HD Live streaming from Space Station
objects crossing your sky now

STARLINK-33674

Track STARLINK-33674 now!
10-day predictions
STARLINK-33674 is classified as:


NORAD ID: 63329
Int'l Code: 2025-057Y
Perigee: 489.3 km
Apogee: 491.0 km
Inclination: 43.0 °
Period: 94.3 minutes
Semi major axis: 6861 km
RCS: Unknown
Launch date: March 18, 2025
Source: United States (US)
Launch site: AIR FORCE EASTERN TEST RANGE (AFETR)
Your satellite tracking list
COSMOS 1656
Track 1 satellite(s)




NASA's NSSDC Master Catalog

Two Line Element Set (TLE):
1 63329U 25057Y   25199.33335648 -.00010919  00000-0 -38758-3 0  9999
2 63329  43.0014 274.4351 0001215 267.1987 139.4715 15.27601646 19932
Source of the keplerian elements: AFSPC